sat.trackr.live / text

‹ back to catalog

STARLINK-34632

NORAD 64792 · 2025-150C

PAYLOAD ACTIVE UNKNOWN

§ Identity

Operator
Country
US
Launch date
2025-07-16
Launch site
AFWTR
Launch vehicle
Mass (kg)
RCS (m²)

Purposes: comms

External: N2YO · Heavens-Above · Gunter

§ Orbital elements

Epoch: 2026-05-24T15:38:29.796000Z

Period
96.11 min
Inclination
70.0003°
Eccentricity
0.0002827
Mean motion
14.98337194 rev/d
Perigee alt
570.1 km
Apogee alt
574.0 km
Semi-major
6,950.2 km
B*
3.0776e-4
RAAN
302.8703°
Arg perigee
264.1668°
Mean anomaly
95.9169°
Rev number
4,789

§ Raw data

STARLINK-346321 64792U 25150C   26144.65173375  .00003582  00000+0  30776-3 0  99982 64792  70.0003 302.8703 0002827 264.1668  95.9169 14.98337194 47891

JSON: /api/v1/satellites/64792 · /tle

For live sub-satellite position, see the globe view (requires WebGL).

§ Visibility from observer

Set your observer location to see the next 7 days of passes ≥ 10°. The values pass through the URL so the page stays shareable.

No JS? Fill the form by hand. The geolocation button needs JavaScript.